SCP
0 0 0 0 0 0 0 0 0 0 0 0 0 0 0 0 0 0 0 0 0 0 0 0 0 0 0 0 0 0 0 0 0 0 0 0 0 0 0 0 0 0 0 0 0 0 0 0 0 -0 0 0 0 0
0 0 0 0 0 0 0 0 0 0 0 0 0 0 0 0 0 0 0 0 0 0 0 0 0 0 0 0 0 0 0 0 0 0 0 0 0 0 0 0 0 0 0 0 0 0 0 0 0 0 0 0 0 0
0 0 0 0 0 0 0 0 0 0 0 0 0 0 0 0 0 0 0 0 0 0 0 0 0 0 0 0 0 0 0 0 0 0 0 0 0 0 0 0 0 0 0 0 0 0 0 0 0 0 0 0 0 0
0 0 0 0 0 0 0 0 0 0 0 0 0 0 0 0 0 0 0 0 0 0 0 0 0 0 0 0 0 0 0 0 0 0 0 0 0 0 0 0 0 0 0 0 0 0 0 0 0 0 0 0 0 0
0 0 0 0 0 0 0 0 0 0 0 0 0 0 0 0 0 0 0 0 0 0 0 0 0 0 0 0 0 0 0 0 0 0 0 0 0 0 0 0 0 0 0 0 0 0 0 0 0 0 0 0 0 0
0 0 0 0 0 0 0 0 0 0 0 0 0 0 0 0 0 0 0 0 0 0 0 0 0 0 0 0 0 0 0 0 0 0 0 0 0 0 0 0 0 0 0 0 0 0 0 0 0 0 0 0 0 0
0 0 0 0 0 0 0 0 0 0 0 0 0 0 0 0 0 0 0 0 0 0 0 0 0 0 0 0 0 0 0 0 0 0 0 0 0 0 0 0 0 0 0 0 0 0 0 0 0 0 0 0 0 0
0 0 0 0 0 0 0 0 0 0 0 0 0 0 0 0 0 0 0 0 0 0 0 0 0 0 0 0 0 0 0 0 0 0 0 0 0 0 0 0 -0 -0 0 0 0 0 0 0 0 0 0 0 0 0
0 0 0 0 0 0 0 0 0 0 0 0 0 0 0 0 0 0 0 0 0 0 0 0 0 0 0 0 0 0 0 0 0 0 0 0 0 0 0 -0 0 0 0 0 0 0 0 0 0 0 0 0 0 0
0 0 0 0 0 0 0 0 0 0 0 0 0 0 0 0 0 0 0 0 0 0 0 0 0 0 0 0 0 0 0 0 0 0 0 0 0 0 -0 0 -0 0 0 0 0 0 0 0 0 0 0 0 0 0
0 0 0 0 0 0 0 0 0 0 0 0 0 0 0 0 0 0 0 0 0 0 0 0 0 0 0 0 0 0 0 0 0 0 0 0 0 0 0 0 -0 0 0 0 0 0 0 0 0 0 0 0 0 0
0 0 0 0 0 0 0 0 0 0 0 0 0 0 0 0 0 0 0 0 0 0 0 0 0 0 0 0 0 0 0 0 0 0 0 0 0 0 0 0 0 0 0 0 0 0 0 0 0 0 0 0 0 0
0 0 0 0 0 0 0 0 0 0 0 0 0 0 0 0 0 0 0 0 0 0 0 0 0 0 0 0 0 0 0 0 0 0 -0 -0 0 0 0 0 0 0 0 0 0 0 0 0 0 0 0 0 0 0
0 0 0 0 0 0 0 0 0 0 0 0 0 0 0 0 0 0 0 0 0 0 0 0 0 0 0 0 0 0 0 0 0 -0 -0 -0 -0 -0 0 0 0 -0 -0 0 0 -0 0 0 0 0 0 0 0 0
0 0 0 0 0 0 0 0 0 0 0 0 0 0 0 0 0 0 0 0 0 0 0 0 0 0 0 0 0 0 0 0 0 -0 -0 -0 -0 -0 -0 -0 -0 -0 0 0 0 -0 -0 0 0 0 0 0 0 0
0 0 0 0 0 0 0 0 0 0 0 0 0 0 0 0 0 0 0 0 0 0 0 0 0 0 0 0 0 0 0 0 0 -0 -0 -0 -0 -0 -0 -0 -0 -0 -0 -0 -0 -0 -0 -0 -0 0 0 0 0 0
0 0 0 0 0 0 0 0 0 0 0 0 0 0 0 0 0 0 0 0 0 0 0 0 0 0 0 0 0 0 -0 -0 -0 -0 -0 -0 -0 -0 -0 -0 -0 -0 -0 -0 -0 -0 -0 -0 -0 -0 -0 -0 -0 -0
0 0 0 0 0 0 0 0 0 0 0 0 0 0 0 0 0 0 0 0 0 0 0 0 0 -0 0 -0 -0 0 -0 -0 -0 -0 -0 -0 -0 -0 -0 -0 0 -0 -0 -0 0 0 0 0 0 0 0 0 -0 -0
0 0 0 0 0 0 0 0 0 0 0 0 0 0 0 0 0 0 0 0 0 0 0 0 0 0 0 -0 -0 -0 -0 -0 -0 -0 -0 0 -0 0 0 -0 -0 -0 -0 -0 0 0 0 0 -0 -0 0 0 0 0
0 0 0 0 0 0 0 0 0 0 0 0 0 0 0 0 0 0 0 0 0 0 0 0 -0 -0 -0 -0 -0 -0 0 -0 -0 0 -0 0 0 0 0 0 0 0 0 0 0 0 0 0 0 -0 -0 0 0 0
0 0 0 0 0 0 0 0 0 0 0 0 0 0 0 0 0 0 0 0 0 0 -0 -0 -0 0 0 0 0 0 0 0 0 -0 0 0 0 0 0 0 0 0 0 0 0 0 0 0 0 0 -0 0 0 0
0 0 0 0 0 0 0 0 0 0 0 0 0 0 0 0 0 0 0 0 0 0 0 -0 0 0 0 0 0 0 0 0 0 0 0 0 0 0 0 0 0 0 0 0 0 0 0 0 0 0 -0 -0 -0 -0
0 0 0 0 0 0 0 0 0 0 0 0 0 0 0 0 0 0 0 0 0 -0 -0 -0 0 0 0 0 0 0 0 0 0 0 0 0 0 0 0 0 0 0 0 0 0 0 0 -0 0 0 0 0 0 0
0 0 0 0 0 0 0 0 0 0 0 0 0 0 0 0 0 0 0 0 0 0 -0 -0 -0 0 0 0 0 0 0 -0 0 -0 -0 -0 0 0 0 0 0 0 0 0 0 0 0 0 0 0 0 0 0 0
0 0 0 0 0 0 0 0 0 0 0 0 0 0 0 0 0 0 0 0 0 0 -0 -0 -0 0 0 0 0 0 0 0 -0 -0 -0 0 0 0 0 0 0 0 0 0 0 0 0 0 0 0 0 0 0 0
0 0 0 0 0 0 0 0 0 0 0 0 0 0 0 0 0 0 0 0 0 -0 -0 -0 -0 0 0 0 0 -0 -0 0 -0 -0 -0 -0 -0 0 -0 -0 0 0 0 0 0 0 0 0 0 0 0 0 0 0
0 0 0 0 0 0 0 0 0 0 0 0 0 0 0 0 0 0 0 0 -0 -0 -0 -0 -0 -0 0 0 0 0 -0 0 -0 -0 -0 -0 -0 0 0 -0 -0 -0 0 -0 0 0 0 0 0 0 0 -0 -0 -0
0 0 0 0 0 0 0 0 0 0 0 0 0 0 0 0 0 0 0 0 -0 -0 -0 -0 -0 -0 0 0 0 0 0 -0 0 -0 -0 0 0 0 0 0 -0 -0 -0 -0 0 0 0 0 0 0 0 0 0 -0
0 0 0 0 0 0 0 0 0 0 0 0 0 0 0 0 0 0 0 -0 -0 -0 -0 -0 -0 0 0 0 -0 0 0 0 -0 -0 -0 -0 0 0 -0 -0 -0 -0 -0 0 -0 -0 -0 0 0 0 0 0 0 0
0 0 0 0 0 0 0 0 0 0 0 0 0 0 0 0 0 0 0 -0 -0 -0 -0 -0 -0 -0 -0 -0 0 -0 -0 0 0 0 -0 -0 0 -0 -0 -0 -0 -0 -0 0 0 0 0 0 0 0 0 0 0 0
0 0 0 0 0 0 0 0 0 0 0 0 0 0 0 0 0 0 -0 -0 -0 -0 -0 -0 -0 -0 -0 -0 -0 0 0 0 -0 -0 -0 -0 -0 -0 -0 -0 -0 -0 0 0 0 0 0 0 0 0 0 0 0 0
0 0 0 0 0 0 0 0 0 0 0 0 0 0 0 0 -0 -0 -0 -0 -0 -0 -0 -0 -0 -0 -0 -0 -0 0 -0 0 0 -0 -0 -0 -0 -0 0 0 0 0 0 0 0 0 0 0 0 0 0 0 0 0
0 0 0 0 0 0 0 0 0 0 0 0 0 0 0 -0 -0 -0 0 -0 -0 -0 -0 -0 -0 -0 -0 0 0 0 0 0 -0 -0 -0 -0 -0 0 0 0 0 0 0 0 0 0 -0 -0 0 0 0 0 0 0
Wind_Speed_500mb
33 30 31 32 33 35 33 35 35 37 37 39 39 37 34 33 34 38 45 41 39 37 54 60 41 53 58 58 32 55 37 35 28 18 22 25 21 25 30 33 32 33 25 24 29 35 39 23 11 9 13 8 5 6
38 35 33 34 35 34 34 34 37 37 38 40 38 37 35 35 39 45 46 36 38 41 58 69 75 64 62 72 69 51 53 60 26 11 13 14 27 27 39 31 34 31 30 26 24 14 11 13 17 4 6 3 11 4
35 34 35 35 33 34 37 36 37 37 38 39 36 36 38 43 41 41 48 42 43 46 59 41 41 43 38 45 45 51 54 53 35 26 26 19 39 30 32 34 45 51 64 33 34 36 42 50 22 26 21 23 28 20
36 35 34 35 36 37 38 36 39 41 41 40 39 41 44 48 39 39 40 43 41 32 28 65 16 22 34 44 49 53 49 48 53 55 44 21 29 38 32 38 36 34 37 27 41 44 59 62 61 55 53 43 40 48
36 39 40 40 41 43 41 40 38 41 43 41 45 46 46 44 49 49 49 48 43 37 31 58 60 58 38 34 39 39 45 50 52 46 23 25 47 31 27 26 27 45 35 28 29 56 53 62 62 59 55 56 61 53
38 38 41 43 46 41 43 41 43 44 45 45 42 40 38 41 43 34 19 3 10 13 21 14 37 55 19 9 32 39 41 45 46 46 38 38 46 34 19 32 53 58 60 67 59 56 64 75 79 76 72 64 46 46
40 40 40 42 42 45 43 42 44 42 46 42 41 40 38 37 29 28 18 24 39 30 17 17 18 14 18 27 28 31 30 37 39 43 41 43 47 47 25 31 57 66 66 71 69 70 69 63 50 66 59 58 56 60
43 43 42 42 45 46 45 45 42 42 44 41 41 42 43 39 34 26 19 19 13 15 13 8 14 27 7 26 20 32 45 49 33 42 46 37 44 42 15 39 57 54 47 49 53 59 69 62 63 59 61 63 64 64
42 41 45 46 46 46 44 48 37 42 36 37 40 40 25 6 8 5 18 32 32 23 11 12 18 17 17 32 33 44 45 25 55 22 25 20 16 11 21 35 36 27 34 33 38 44 43 48 56 65 69 71 68 68
44 50 53 51 51 45 38 36 46 35 33 32 26 7 7 7 19 35 5 3 7 10 14 18 23 19 28 39 41 32 18 12 20 24 26 12 20 33 27 27 46 21 38 29 33 34 40 49 46 49 58 62 71 74
54 50 44 44 37 37 29 35 33 25 23 11 4 7 12 29 12 4 5 8 6 9 12 13 17 23 39 22 23 14 10 10 11 14 9 15 24 29 36 20 16 30 27 32 40 38 40 38 37 45 46 51 53 55
50 47 42 37 37 39 37 27 18 13 11 10 15 20 13 3 6 7 5 5 11 8 7 17 32 38 39 31 19 14 13 7 12 26 11 11 8 15 22 28 34 39 41 43 45 49 46 46 53 46 44 48 52 52
46 39 33 30 32 43 24 18 12 11 10 8 6 5 6 6 8 9 11 8 6 9 20 34 29 43 34 9 13 10 9 11 31 13 12 16 20 21 30 39 42 48 50 53 58 58 55 54 63 56 46 42 40 39
35 32 17 21 28 25 15 9 8 5 2 5 7 8 9 10 10 9 12 13 23 27 35 34 39 29 40 16 9 10 12 10 10 19 29 20 47 46 43 42 48 56 58 58 60 64 68 75 69 59 53 51 44 44
32 26 27 25 18 13 9 11 8 7 5 8 8 10 14 24 19 18 22 28 33 31 33 31 30 33 15 9 8 10 8 10 10 26 28 48 63 66 69 69 71 75 71 74 69 77 74 72 77 72 68 60 56 52
32 28 25 20 14 13 14 10 13 11 6 9 15 14 22 16 21 26 28 33 30 28 28 22 10 8 8 7 10 13 21 35 31 22 53 63 69 74 76 80 81 82 84 81 78 76 71 72 73 73 67 68 70 65
32 23 23 17 20 21 16 17 12 11 11 11 15 26 34 35 30 32 33 30 30 28 16 12 8 11 11 11 20 10 27 31 53 59 66 71 76 81 81 83 83 84 76 63 66 62 62 63 62 64 71 71 75 77
26 21 18 21 21 18 19 18 9 12 16 25 27 32 32 34 34 34 36 35 28 30 28 21 18 22 23 41 33 28 50 55 61 64 68 76 82 85 85 84 76 73 73 66 60 58 56 58 60 59 61 65 71 74
20 21 21 23 27 24 9 11 16 11 23 26 27 30 32 33 33 37 39 34 30 29 17 14 12 17 21 38 44 54 56 60 65 69 76 82 80 78 80 79 72 71 65 62 59 57 54 52 56 59 62 58 62 64
24 27 25 27 28 15 10 10 16 14 13 17 24 29 31 33 36 38 36 34 35 31 19 11 23 43 51 56 56 60 63 66 74 82 75 74 77 82 78 73 70 64 62 55 51 48 47 48 48 52 58 61 65 69
19 18 23 25 27 21 10 10 16 17 17 20 21 25 25 33 36 34 33 32 35 39 37 49 53 56 55 55 56 57 64 79 77 71 78 88 81 78 75 67 57 56 53 52 50 48 45 45 47 48 51 58 63 66
19 25 21 25 14 12 16 23 15 5 14 30 33 33 29 24 30 34 34 28 33 43 45 43 41 47 52 53 55 68 79 79 73 74 73 76 77 74 70 67 60 59 54 50 48 49 48 46 44 45 48 55 58 63
21 23 14 18 16 14 12 16 16 17 9 8 17 16 16 24 28 32 22 32 42 41 43 44 47 49 47 57 71 75 72 73 70 74 75 72 73 71 66 61 54 56 64 59 48 49 51 51 53 52 52 55 58 60
23 15 12 15 25 9 10 12 15 15 14 18 15 23 20 30 32 23 22 42 42 46 43 40 37 46 61 67 69 71 69 70 76 78 72 70 71 68 64 64 63 57 51 56 56 54 51 54 55 58 61 61 60 59
12 16 13 13 14 12 10 11 24 16 16 18 27 20 16 24 12 24 28 39 32 27 29 38 51 54 62 69 70 68 67 69 72 79 78 66 66 67 69 66 60 52 47 46 51 56 62 62 60 55 52 49 43 36
17 18 18 15 17 12 12 8 9 14 20 18 12 19 20 11 21 23 25 38 31 32 46 50 53 62 64 58 62 67 74 70 71 74 74 60 63 67 67 64 66 65 44 55 65 66 64 61 55 55 45 22 15 18
13 17 20 27 18 18 13 18 20 11 13 13 13 22 13 10 16 23 28 38 54 56 51 46 52 51 52 56 62 69 74 66 63 71 75 65 57 49 48 52 58 60 64 55 52 54 55 47 28 20 25 29 29 26
20 12 25 28 34 33 24 19 20 10 12 22 16 14 10 13 26 55 57 60 57 51 45 46 38 40 51 62 68 69 61 59 58 55 52 44 35 36 32 38 48 43 43 48 38 35 17 14 20 27 35 39 39 38
23 20 23 25 29 19 23 25 29 42 42 42 25 26 40 54 59 63 65 59 43 41 34 36 45 53 58 62 60 54 49 45 48 56 52 49 43 35 39 39 36 36 39 25 27 21 12 24 34 37 40 46 46 45
26 27 24 16 11 14 35 36 40 40 36 34 38 49 56 61 57 53 41 31 23 21 32 45 52 52 63 62 65 59 45 39 36 39 45 48 49 48 40 42 41 39 24 4 10 13 25 34 40 43 49 54 60 69
25 27 25 29 15 27 36 31 31 33 31 34 37 42 51 49 35 27 13 6 15 36 48 49 56 55 56 56 57 62 63 38 36 38 39 42 42 37 41 39 28 19 12 5 13 27 37 47 56 65 75 85 89 96
15 24 31 26 32 32 16 19 31 36 40 40 43 31 23 20 28 11 17 19 40 46 45 52 58 64 59 55 54 48 46 45 42 32 32 33 33 22 24 17 11 7 16 30 38 50 62 76 90 95 97 104 107 108
8 11 14 15 17 27 14 6 15 18 20 16 15 12 13 10 8 5 20 41 36 40 51 58 57 58 56 50 43 36 28 30 29 30 28 17 9 4 2 2 12 25 39 57 71 81 92 97 105 108 109 107 105 105
Wind_Direction_500mb
296 301 300 297 301 305 303 307 307 309 311 313 314 314 314 309 308 307 300 300 284 273 284 282 290 299 289 283 276 278 299 282 279 255 263 268 272 276 276 268 267 262 256 242 253 262 262 272 147 239 100 117 114 107
295 295 298 296 299 301 301 304 305 306 309 312 313 310 309 305 307 303 296 295 290 277 273 287 289 286 278 273 275 278 273 275 263 268 262 298 293 296 286 280 289 275 262 267 265 261 315 2 313 162 179 218 164 163
287 295 297 297 297 299 298 299 305 305 307 308 311 309 305 307 307 296 293 293 292 291 296 283 296 298 296 286 273 271 277 279 276 292 298 285 277 276 264 265 275 270 274 273 276 268 267 268 241 253 231 225 243 239
284 289 294 297 300 298 305 299 302 301 305 305 306 306 303 310 302 293 288 289 290 287 282 294 309 323 301 292 284 282 278 295 290 290 290 284 269 264 269 271 269 277 293 280 277 274 272 272 276 270 263 253 256 263
284 288 291 293 297 297 298 298 302 302 302 301 303 301 295 300 298 294 291 284 278 267 288 299 301 301 301 294 290 281 281 278 278 273 260 264 272 278 280 278 269 275 285 280 280 287 303 298 285 284 277 267 268 264
283 289 290 294 296 291 298 295 296 299 300 303 302 299 300 295 301 314 316 265 251 257 284 297 300 303 301 318 310 297 287 280 273 268 272 274 274 268 270 274 280 284 278 271 273 282 286 284 279 282 263 269 264 264
283 286 287 294 295 294 295 291 299 295 298 302 303 304 306 302 294 278 251 295 312 309 294 292 300 292 309 306 316 321 316 295 287 279 269 272 269 262 262 267 275 278 280 274 272 273 273 270 274 269 263 266 264 268
288 278 284 291 293 293 297 291 294 292 297 298 302 306 304 296 289 285 273 254 287 297 259 269 275 291 355 312 327 324 316 309 293 285 280 275 273 265 257 263 271 274 280 278 278 280 274 264 272 271 272 269 266 268
285 284 287 290 291 292 295 292 276 290 287 297 306 309 307 290 231 244 262 278 271 246 272 266 288 300 332 316 315 308 299 294 289 280 268 266 258 238 262 277 283 294 297 298 293 291 282 277 271 268 267 266 264 264
287 291 289 288 290 286 285 274 276 279 298 312 315 286 269 223 250 301 265 274 232 215 231 262 293 289 311 319 312 320 312 292 287 284 302 255 278 288 313 307 301 293 294 304 303 305 309 290 285 288 282 272 265 259
295 290 288 287 284 285 282 268 273 295 319 308 290 255 270 299 308 245 242 242 195 246 225 259 293 308 321 323 317 307 300 297 290 300 280 271 287 292 306 4 318 319 327 317 310 300 310 314 307 303 294 273 264 263
292 288 281 279 271 266 251 256 281 296 269 269 277 286 297 264 225 241 225 226 239 260 295 318 312 311 314 302 299 293 291 279 290 318 305 291 343 336 351 347 338 330 322 313 305 303 296 294 298 296 300 292 280 266
285 285 278 269 264 237 238 279 284 253 280 292 277 269 257 179 246 229 195 237 252 295 308 308 307 317 308 321 279 277 258 271 302 285 266 275 33 334 337 329 319 314 310 309 308 306 289 276 282 282 279 285 284 285
269 277 276 263 233 253 284 250 248 243 214 256 244 245 234 194 232 233 266 301 310 306 306 306 301 296 293 295 269 269 271 285 268 273 285 307 329 329 315 312 310 309 304 297 293 294 291 293 285 270 264 268 269 273
255 263 247 243 248 254 232 208 214 195 196 237 230 245 225 242 266 276 286 290 289 300 299 302 305 301 294 266 255 268 266 256 291 305 308 318 319 320 312 309 304 296 299 294 296 292 283 287 280 276 261 257 261 263
232 237 230 238 233 210 203 199 194 211 227 227 232 247 256 260 271 280 283 286 297 306 306 298 283 275 262 251 256 269 279 288 296 305 310 311 310 309 307 305 303 301 296 291 291 287 282 280 275 272 265 259 259 261
229 211 236 226 196 201 199 196 205 213 231 223 238 244 265 275 282 281 282 289 301 291 279 280 256 248 291 260 282 282 300 302 307 310 308 308 311 307 305 304 303 301 295 293 293 288 283 278 275 267 265 260 257 256
211 228 214 190 176 180 193 205 220 238 237 242 257 263 257 259 264 273 279 286 278 276 270 256 269 273 275 284 284 290 297 308 307 305 305 310 311 308 308 307 307 304 300 297 293 288 282 276 271 273 265 260 262 258
184 188 189 183 179 198 204 223 212 258 236 255 263 264 265 269 270 274 278 278 265 256 257 261 255 261 283 297 302 308 305 306 308 308 310 312 310 312 311 309 306 305 302 299 294 288 281 274 272 271 271 269 268 259
193 196 195 192 196 193 225 224 207 252 263 267 257 259 264 271 279 282 280 271 263 256 233 235 259 275 282 292 300 305 308 311 316 314 313 313 314 312 311 310 308 307 305 302 297 290 284 278 272 267 266 266 267 267
171 193 190 189 202 218 252 231 222 247 263 256 264 272 279 283 281 278 271 263 263 258 256 264 269 278 288 295 302 306 313 318 314 313 313 313 314 313 313 314 313 309 306 304 301 297 291 283 281 277 274 271 269 269
182 188 186 198 221 222 246 231 242 231 250 258 272 275 273 273 277 275 273 269 256 262 273 279 291 297 303 305 306 313 313 313 313 311 313 313 312 315 315 315 315 311 309 306 302 298 295 292 288 284 280 278 278 276
175 175 193 194 213 229 250 230 229 233 239 257 254 265 272 275 272 283 279 271 278 286 290 297 296 295 295 303 309 310 312 315 313 314 315 314 312 312 313 313 313 310 309 309 306 300 297 297 297 297 295 293 291 289
178 185 209 212 208 235 206 226 230 250 245 247 261 267 274 281 287 280 278 281 292 300 293 291 301 309 308 308 310 312 315 316 313 312 313 314 313 311 313 311 312 311 307 306 309 309 309 310 311 309 308 304 301 298
193 208 217 214 221 216 220 232 230 235 242 250 254 259 276 284 271 283 288 288 290 298 305 308 305 305 309 307 307 308 312 314 313 309 309 311 310 308 309 312 313 312 316 314 315 314 314 314 315 317 319 316 313 314
215 208 207 210 193 206 213 220 220 234 249 259 260 257 270 269 273 279 283 290 306 306 311 309 310 309 304 304 304 308 311 313 309 303 304 307 303 303 306 308 311 318 325 320 320 319 319 331 335 339 346 33 47 70
226 218 210 222 225 206 239 245 251 248 247 252 253 264 270 251 267 268 286 312 313 312 306 302 305 301 299 301 303 305 307 308 304 298 299 304 305 308 301 297 302 312 322 331 339 336 332 338 360 53 54 67 69 76
228 238 202 210 222 233 231 246 259 246 250 263 258 260 251 259 281 296 303 305 308 303 299 301 298 299 303 304 304 308 308 308 306 306 309 310 313 312 311 311 309 325 346 355 339 344 24 55 75 73 73 70 68 73
230 228 232 227 231 237 241 245 245 256 263 267 273 274 282 289 295 297 300 303 300 304 300 300 303 307 306 307 308 310 311 310 307 307 312 316 321 322 322 333 345 357 2 353 337 7 50 81 81 82 82 81 82 82
232 224 229 193 192 233 248 259 264 270 273 283 287 289 288 286 294 301 294 294 288 292 304 308 309 311 312 313 312 312 310 303 296 294 300 304 306 321 341 354 357 356 350 324 336 54 86 88 93 94 92 90 90 90
239 234 237 238 239 251 268 273 282 283 279 281 285 280 281 294 296 287 302 283 314 320 315 312 312 314 313 311 309 308 308 309 300 298 298 302 311 324 341 340 335 333 330 7 101 106 106 102 98 98 98 99 99 100
231 246 254 262 265 273 267 273 277 278 280 277 275 274 277 275 281 266 275 316 328 322 316 318 316 312 311 307 302 298 296 303 308 314 318 313 306 329 327 328 318 356 112 118 118 114 110 110 109 108 107 108 108 107
234 253 259 279 274 267 257 251 278 279 267 262 271 265 270 271 271 297 303 326 330 320 321 318 314 312 310 308 307 311 317 320 321 315 306 309 321 353 287 111 124 134 129 120 116 116 117 116 116 115 113 111 109 106
Wind_Speed_850mb
33 30 31 32 33 35 33 35 35 37 37 39 39 37 34 33 34 38 45 41 39 37 54 60 41 53 58 58 32 55 37 35 28 18 22 25 21 25 30 33 32 33 25 24 29 35 39 23 11 9 13 8 5 6
38 35 33 34 35 34 34 34 37 37 38 40 38 37 35 35 39 45 46 36 38 41 58 69 75 64 62 72 69 51 53 60 26 11 13 14 27 27 39 31 34 31 30 26 24 14 11 13 17 4 6 3 11 4
35 34 35 35 33 34 37 36 37 37 38 39 36 36 38 43 41 41 48 42 43 46 59 41 41 43 38 45 45 51 54 53 35 26 26 19 39 30 32 34 45 51 64 33 34 36 42 50 22 26 21 23 28 20
36 35 34 35 36 37 38 36 39 41 41 40 39 41 44 48 39 39 40 43 41 32 28 65 16 22 34 44 49 53 49 48 53 55 44 21 29 38 32 38 36 34 37 27 41 44 59 62 61 55 53 43 40 48
36 39 40 40 41 43 41 40 38 41 43 41 45 46 46 44 49 49 49 48 43 37 31 58 60 58 38 34 39 39 45 50 52 46 23 25 47 31 27 26 27 45 35 28 29 56 53 62 62 59 55 56 61 53
38 38 41 43 46 41 43 41 43 44 45 45 42 40 38 41 43 34 19 3 10 13 21 14 37 55 19 9 32 39 41 45 46 46 38 38 46 34 19 32 53 58 60 67 59 56 64 75 79 76 72 64 46 46
40 40 40 42 42 45 43 42 44 42 46 42 41 40 38 37 29 28 18 24 39 30 17 17 18 14 18 27 28 31 30 37 39 43 41 43 47 47 25 31 57 66 66 71 69 70 69 63 50 66 59 58 56 60
43 43 42 42 45 46 45 45 42 42 44 41 41 42 43 39 34 26 19 19 13 15 13 8 14 27 7 26 20 32 45 49 33 42 46 37 44 42 15 39 57 54 47 49 53 59 69 62 63 59 61 63 64 64
42 41 45 46 46 46 44 48 37 42 36 37 40 40 25 6 8 5 18 32 32 23 11 12 18 17 17 32 33 44 45 25 55 22 25 20 16 11 21 35 36 27 34 33 38 44 43 48 56 65 69 71 68 68
44 50 53 51 51 45 38 36 46 35 33 32 26 7 7 7 19 35 5 3 7 10 14 18 23 19 28 39 41 32 18 12 20 24 26 12 20 33 27 27 46 21 38 29 33 34 40 49 46 49 58 62 71 74
54 50 44 44 37 37 29 35 33 25 23 11 4 7 12 29 12 4 5 8 6 9 12 13 17 23 39 22 23 14 10 10 11 14 9 15 24 29 36 20 16 30 27 32 40 38 40 38 37 45 46 51 53 55
50 47 42 37 37 39 37 27 18 13 11 10 15 20 13 3 6 7 5 5 11 8 7 17 32 38 39 31 19 14 13 7 12 26 11 11 8 15 22 28 34 39 41 43 45 49 46 46 53 46 44 48 52 52
46 39 33 30 32 43 24 18 12 11 10 8 6 5 6 6 8 9 11 8 6 9 20 34 29 43 34 9 13 10 9 11 31 13 12 16 20 21 30 39 42 48 50 53 58 58 55 54 63 56 46 42 40 39
35 32 17 21 28 25 15 9 8 5 2 5 7 8 9 10 10 9 12 13 23 27 35 34 39 29 40 16 9 10 12 10 10 19 29 20 47 46 43 42 48 56 58 58 60 64 68 75 69 59 53 51 44 44
32 26 27 25 18 13 9 11 8 7 5 8 8 10 14 24 19 18 22 28 33 31 33 31 30 33 15 9 8 10 8 10 10 26 28 48 63 66 69 69 71 75 71 74 69 77 74 72 77 72 68 60 56 52
32 28 25 20 14 13 14 10 13 11 6 9 15 14 22 16 21 26 28 33 30 28 28 22 10 8 8 7 10 13 21 35 31 22 53 63 69 74 76 80 81 82 84 81 78 76 71 72 73 73 67 68 70 65
32 23 23 17 20 21 16 17 12 11 11 11 15 26 34 35 30 32 33 30 30 28 16 12 8 11 11 11 20 10 27 31 53 59 66 71 76 81 81 83 83 84 76 63 66 62 62 63 62 64 71 71 75 77
26 21 18 21 21 18 19 18 9 12 16 25 27 32 32 34 34 34 36 35 28 30 28 21 18 22 23 41 33 28 50 55 61 64 68 76 82 85 85 84 76 73 73 66 60 58 56 58 60 59 61 65 71 74
20 21 21 23 27 24 9 11 16 11 23 26 27 30 32 33 33 37 39 34 30 29 17 14 12 17 21 38 44 54 56 60 65 69 76 82 80 78 80 79 72 71 65 62 59 57 54 52 56 59 62 58 62 64
24 27 25 27 28 15 10 10 16 14 13 17 24 29 31 33 36 38 36 34 35 31 19 11 23 43 51 56 56 60 63 66 74 82 75 74 77 82 78 73 70 64 62 55 51 48 47 48 48 52 58 61 65 69
19 18 23 25 27 21 10 10 16 17 17 20 21 25 25 33 36 34 33 32 35 39 37 49 53 56 55 55 56 57 64 79 77 71 78 88 81 78 75 67 57 56 53 52 50 48 45 45 47 48 51 58 63 66
19 25 21 25 14 12 16 23 15 5 14 30 33 33 29 24 30 34 34 28 33 43 45 43 41 47 52 53 55 68 79 79 73 74 73 76 77 74 70 67 60 59 54 50 48 49 48 46 44 45 48 55 58 63
21 23 14 18 16 14 12 16 16 17 9 8 17 16 16 24 28 32 22 32 42 41 43 44 47 49 47 57 71 75 72 73 70 74 75 72 73 71 66 61 54 56 64 59 48 49 51 51 53 52 52 55 58 60
23 15 12 15 25 9 10 12 15 15 14 18 15 23 20 30 32 23 22 42 42 46 43 40 37 46 61 67 69 71 69 70 76 78 72 70 71 68 64 64 63 57 51 56 56 54 51 54 55 58 61 61 60 59
12 16 13 13 14 12 10 11 24 16 16 18 27 20 16 24 12 24 28 39 32 27 29 38 51 54 62 69 70 68 67 69 72 79 78 66 66 67 69 66 60 52 47 46 51 56 62 62 60 55 52 49 43 36
17 18 18 15 17 12 12 8 9 14 20 18 12 19 20 11 21 23 25 38 31 32 46 50 53 62 64 58 62 67 74 70 71 74 74 60 63 67 67 64 66 65 44 55 65 66 64 61 55 55 45 22 15 18
13 17 20 27 18 18 13 18 20 11 13 13 13 22 13 10 16 23 28 38 54 56 51 46 52 51 52 56 62 69 74 66 63 71 75 65 57 49 48 52 58 60 64 55 52 54 55 47 28 20 25 29 29 26
20 12 25 28 34 33 24 19 20 10 12 22 16 14 10 13 26 55 57 60 57 51 45 46 38 40 51 62 68 69 61 59 58 55 52 44 35 36 32 38 48 43 43 48 38 35 17 14 20 27 35 39 39 38
23 20 23 25 29 19 23 25 29 42 42 42 25 26 40 54 59 63 65 59 43 41 34 36 45 53 58 62 60 54 49 45 48 56 52 49 43 35 39 39 36 36 39 25 27 21 12 24 34 37 40 46 46 45
26 27 24 16 11 14 35 36 40 40 36 34 38 49 56 61 57 53 41 31 23 21 32 45 52 52 63 62 65 59 45 39 36 39 45 48 49 48 40 42 41 39 24 4 10 13 25 34 40 43 49 54 60 69
25 27 25 29 15 27 36 31 31 33 31 34 37 42 51 49 35 27 13 6 15 36 48 49 56 55 56 56 57 62 63 38 36 38 39 42 42 37 41 39 28 19 12 5 13 27 37 47 56 65 75 85 89 96
15 24 31 26 32 32 16 19 31 36 40 40 43 31 23 20 28 11 17 19 40 46 45 52 58 64 59 55 54 48 46 45 42 32 32 33 33 22 24 17 11 7 16 30 38 50 62 76 90 95 97 104 107 108
8 11 14 15 17 27 14 6 15 18 20 16 15 12 13 10 8 5 20 41 36 40 51 58 57 58 56 50 43 36 28 30 29 30 28 17 9 4 2 2 12 25 39 57 71 81 92 97 105 108 109 107 105 105
Wind_Direction_850mb
296 301 300 297 301 305 303 307 307 309 311 313 314 314 314 309 308 307 300 300 284 273 284 282 290 299 289 283 276 278 299 282 279 255 263 268 272 276 276 268 267 262 256 242 253 262 262 272 147 239 100 117 114 107
295 295 298 296 299 301 301 304 305 306 309 312 313 310 309 305 307 303 296 295 290 277 273 287 289 286 278 273 275 278 273 275 263 268 262 298 293 296 286 280 289 275 262 267 265 261 315 2 313 162 179 218 164 163
287 295 297 297 297 299 298 299 305 305 307 308 311 309 305 307 307 296 293 293 292 291 296 283 296 298 296 286 273 271 277 279 276 292 298 285 277 276 264 265 275 270 274 273 276 268 267 268 241 253 231 225 243 239
284 289 294 297 300 298 305 299 302 301 305 305 306 306 303 310 302 293 288 289 290 287 282 294 309 323 301 292 284 282 278 295 290 290 290 284 269 264 269 271 269 277 293 280 277 274 272 272 276 270 263 253 256 263
284 288 291 293 297 297 298 298 302 302 302 301 303 301 295 300 298 294 291 284 278 267 288 299 301 301 301 294 290 281 281 278 278 273 260 264 272 278 280 278 269 275 285 280 280 287 303 298 285 284 277 267 268 264
283 289 290 294 296 291 298 295 296 299 300 303 302 299 300 295 301 314 316 265 251 257 284 297 300 303 301 318 310 297 287 280 273 268 272 274 274 268 270 274 280 284 278 271 273 282 286 284 279 282 263 269 264 264
283 286 287 294 295 294 295 291 299 295 298 302 303 304 306 302 294 278 251 295 312 309 294 292 300 292 309 306 316 321 316 295 287 279 269 272 269 262 262 267 275 278 280 274 272 273 273 270 274 269 263 266 264 268
288 278 284 291 293 293 297 291 294 292 297 298 302 306 304 296 289 285 273 254 287 297 259 269 275 291 355 312 327 324 316 309 293 285 280 275 273 265 257 263 271 274 280 278 278 280 274 264 272 271 272 269 266 268
285 284 287 290 291 292 295 292 276 290 287 297 306 309 307 290 231 244 262 278 271 246 272 266 288 300 332 316 315 308 299 294 289 280 268 266 258 238 262 277 283 294 297 298 293 291 282 277 271 268 267 266 264 264
287 291 289 288 290 286 285 274 276 279 298 312 315 286 269 223 250 301 265 274 232 215 231 262 293 289 311 319 312 320 312 292 287 284 302 255 278 288 313 307 301 293 294 304 303 305 309 290 285 288 282 272 265 259
295 290 288 287 284 285 282 268 273 295 319 308 290 255 270 299 308 245 242 242 195 246 225 259 293 308 321 323 317 307 300 297 290 300 280 271 287 292 306 4 318 319 327 317 310 300 310 314 307 303 294 273 264 263
292 288 281 279 271 266 251 256 281 296 269 269 277 286 297 264 225 241 225 226 239 260 295 318 312 311 314 302 299 293 291 279 290 318 305 291 343 336 351 347 338 330 322 313 305 303 296 294 298 296 300 292 280 266
285 285 278 269 264 237 238 279 284 253 280 292 277 269 257 179 246 229 195 237 252 295 308 308 307 317 308 321 279 277 258 271 302 285 266 275 33 334 337 329 319 314 310 309 308 306 289 276 282 282 279 285 284 285
269 277 276 263 233 253 284 250 248 243 214 256 244 245 234 194 232 233 266 301 310 306 306 306 301 296 293 295 269 269 271 285 268 273 285 307 329 329 315 312 310 309 304 297 293 294 291 293 285 270 264 268 269 273
255 263 247 243 248 254 232 208 214 195 196 237 230 245 225 242 266 276 286 290 289 300 299 302 305 301 294 266 255 268 266 256 291 305 308 318 319 320 312 309 304 296 299 294 296 292 283 287 280 276 261 257 261 263
232 237 230 238 233 210 203 199 194 211 227 227 232 247 256 260 271 280 283 286 297 306 306 298 283 275 262 251 256 269 279 288 296 305 310 311 310 309 307 305 303 301 296 291 291 287 282 280 275 272 265 259 259 261
229 211 236 226 196 201 199 196 205 213 231 223 238 244 265 275 282 281 282 289 301 291 279 280 256 248 291 260 282 282 300 302 307 310 308 308 311 307 305 304 303 301 295 293 293 288 283 278 275 267 265 260 257 256
211 228 214 190 176 180 193 205 220 238 237 242 257 263 257 259 264 273 279 286 278 276 270 256 269 273 275 284 284 290 297 308 307 305 305 310 311 308 308 307 307 304 300 297 293 288 282 276 271 273 265 260 262 258
184 188 189 183 179 198 204 223 212 258 236 255 263 264 265 269 270 274 278 278 265 256 257 261 255 261 283 297 302 308 305 306 308 308 310 312 310 312 311 309 306 305 302 299 294 288 281 274 272 271 271 269 268 259
193 196 195 192 196 193 225 224 207 252 263 267 257 259 264 271 279 282 280 271 263 256 233 235 259 275 282 292 300 305 308 311 316 314 313 313 314 312 311 310 308 307 305 302 297 290 284 278 272 267 266 266 267 267
171 193 190 189 202 218 252 231 222 247 263 256 264 272 279 283 281 278 271 263 263 258 256 264 269 278 288 295 302 306 313 318 314 313 313 313 314 313 313 314 313 309 306 304 301 297 291 283 281 277 274 271 269 269
182 188 186 198 221 222 246 231 242 231 250 258 272 275 273 273 277 275 273 269 256 262 273 279 291 297 303 305 306 313 313 313 313 311 313 313 312 315 315 315 315 311 309 306 302 298 295 292 288 284 280 278 278 276
175 175 193 194 213 229 250 230 229 233 239 257 254 265 272 275 272 283 279 271 278 286 290 297 296 295 295 303 309 310 312 315 313 314 315 314 312 312 313 313 313 310 309 309 306 300 297 297 297 297 295 293 291 289
178 185 209 212 208 235 206 226 230 250 245 247 261 267 274 281 287 280 278 281 292 300 293 291 301 309 308 308 310 312 315 316 313 312 313 314 313 311 313 311 312 311 307 306 309 309 309 310 311 309 308 304 301 298
193 208 217 214 221 216 220 232 230 235 242 250 254 259 276 284 271 283 288 288 290 298 305 308 305 305 309 307 307 308 312 314 313 309 309 311 310 308 309 312 313 312 316 314 315 314 314 314 315 317 319 316 313 314
215 208 207 210 193 206 213 220 220 234 249 259 260 257 270 269 273 279 283 290 306 306 311 309 310 309 304 304 304 308 311 313 309 303 304 307 303 303 306 308 311 318 325 320 320 319 319 331 335 339 346 33 47 70
226 218 210 222 225 206 239 245 251 248 247 252 253 264 270 251 267 268 286 312 313 312 306 302 305 301 299 301 303 305 307 308 304 298 299 304 305 308 301 297 302 312 322 331 339 336 332 338 360 53 54 67 69 76
228 238 202 210 222 233 231 246 259 246 250 263 258 260 251 259 281 296 303 305 308 303 299 301 298 299 303 304 304 308 308 308 306 306 309 310 313 312 311 311 309 325 346 355 339 344 24 55 75 73 73 70 68 73
230 228 232 227 231 237 241 245 245 256 263 267 273 274 282 289 295 297 300 303 300 304 300 300 303 307 306 307 308 310 311 310 307 307 312 316 321 322 322 333 345 357 2 353 337 7 50 81 81 82 82 81 82 82
232 224 229 193 192 233 248 259 264 270 273 283 287 289 288 286 294 301 294 294 288 292 304 308 309 311 312 313 312 312 310 303 296 294 300 304 306 321 341 354 357 356 350 324 336 54 86 88 93 94 92 90 90 90
239 234 237 238 239 251 268 273 282 283 279 281 285 280 281 294 296 287 302 283 314 320 315 312 312 314 313 311 309 308 308 309 300 298 298 302 311 324 341 340 335 333 330 7 101 106 106 102 98 98 98 99 99 100
231 246 254 262 265 273 267 273 277 278 280 277 275 274 277 275 281 266 275 316 328 322 316 318 316 312 311 307 302 298 296 303 308 314 318 313 306 329 327 328 318 356 112 118 118 114 110 110 109 108 107 108 108 107
234 253 259 279 274 267 257 251 278 279 267 262 271 265 270 271 271 297 303 326 330 320 321 318 314 312 310 308 307 311 317 320 321 315 306 309 321 353 287 111 124 134 129 120 116 116 117 116 116 115 113 111 109 106